This demonstration page uses our WeatherBlox Daily Observations layout. Learn more.

Left ArrowRight Arrow

Hourly Observations for May 16, 2022

Temp ( °F °C ) Dew Point ( °F °C ) Humidity (%) Winds ( mph kmh ) Pressure ( in mb ) Visibility ( mi km ) Precip ( " mm )
12:51 am 00:51 Clear 67 19.4 61 16.1 81 81 Calm 29.78 1009 10 16 0.00 0.00
1:51 am 01:51 Mostly Clear 66 18.9 61 16.1 84 84 SSW 5 7 29.77 1008 10 16 0.00 0.00
2:51 am 02:51 Clear 66 18.9 62 16.7 87 87 SSE 3 6 29.74 1007 10 16 0.00 0.00
3:51 am 03:51 Clear 65 18.3 61 16.1 87 87 Calm 29.75 1007 10 16 0.00 0.00
4:51 am 04:51 Clear 63 17.2 60 15.6 90 90 Calm 29.74 1007 10 16 0.00 0.00
5:51 am 05:51 Mostly Cloudy with Fog 63 17.2 61 16.1 93 93 Calm 29.73 1007 10 16 0.00 0.00
6:51 am 06:51 Sunny 67 19.4 65 18.3 93 93 S 3 6 29.72 1007 10 16 0.00 0.00
7:51 am 07:51 Sunny 70 21.1 67 19.4 90 90 Calm 29.71 1006 10 16 0.00 0.00
8:51 am 08:51 Sunny 72 22.2 65 18.3 79 79 SSW 9 15 29.72 1006 10 16 0.00 0.00
9:51 am 09:51 Mostly Cloudy 74 23.3 66 18.9 76 76 SSW 8 13 29.70 1006 10 16 0.00 0.00
10:51 am 10:51 Partly Cloudy 74 23.3 65 18.3 74 74 S 10 17 29.69 1005 10 16 0.00 0.00
11:51 am 11:51 Sunny 75 23.9 66 18.9 74 74 S 8 13 29.68 1005 10 16 0.00 0.00
12:51 pm 12:51 Partly Cloudy 74 23.3 63 17.2 69 69 S 13 20 29.65 1004 10 16 0.00 0.00
1:09 pm 13:09 Mostly Cloudy with Nearby Thunderstorms 73 22.8 64 17.8 74 74 S 10 17 29.65 1004 9 14 0.00 0.00
1:24 pm 13:24 Cloudy with Light Rain 72 22.2 65 18.3 79 79 S 9 15 29.63 1003 8 13 0.00 0.00
1:51 pm 13:51 Cloudy with Drizzle 72 22.2 66 18.9 82 82 S 7 11 29.61 1003 8 13 0.01 0.25
2:51 pm 14:51 Sunny with Rain 75 23.9 65 18.3 71 71 ESE 14 22 29.57 1001 10 16 0.00 0.00
3:51 pm 15:51 Partly Cloudy 75 23.9 63 17.2 66 66 S 8 13 29.52 1000 10 16 0.00 0.00
4:51 pm 16:51 Mostly Cloudy 74 23.3 63 17.2 69 69 S 8 13 29.52 1000 10 16 0.00 0.00
5:51 pm 17:51 Partly Cloudy 80 26.7 60 15.6 51 51 WSW 10 17 29.52 1000 10 16 0.00 0.00
6:13 pm 18:13 Mostly Cloudy with Nearby Thunderstorms 69 20.6 62 16.7 78 78 WNW 7 11 29.54 1000 10 16 0.00 0.00
6:28 pm 18:28 Partly Cloudy 70 21.1 62 16.7 76 76 W 8 13 29.53 1000 10 16 0.00 0.00
6:51 pm 18:51 Mostly Cloudy with Nearby Thunderstorms 70 21.1 60 15.6 71 71 W 12 19 29.53 1000 10 16 0.00 0.00
7:11 pm 19:11 Cloudy 70 21.1 59 15 68 68 WSW 7 11 29.54 1000 10 16 0.00 0.00
7:51 pm 19:51 Mostly Cloudy with Light Rain 69 20.6 59 15 70 70 WSW 10 17 29.57 1001 10 16 0.00 0.00
8:51 pm 20:51 Mostly Cloudy 66 18.9 61 16.1 84 84 WSW 8 13 29.56 1001 10 16 0.03 0.76
9:51 pm 21:51 Mostly Clear 65 18.3 61 16.1 87 87 W 9 15 29.61 1003 10 16 0.00 0.00
10:51 pm 22:51 Mostly Cloudy 64 17.8 53 11.7 68 68 WNW 20 31 29.65 1004 10 16 0.00 0.00
11:51 pm 23:51 Clear 62 16.7 51 10.6 67 67 WNW 14 22 29.68 1005 10 16 0.00 0.00

Powered by AerisWeather